Eagle Creek, IN

7:14 PM EDT on June 20, 2018 (GMT -0400)
Eagle Creek

Weather History for KEYE - August, 2017

Change the Weather History Date:

Sunday, August 13, 2017

  Actual Average Record
Temperature  
Mean Temperature 71 °F 74 °F  
Max Temperature 83 °F 83 °F 96 °F (2010)
Min Temperature 58 °F 66 °F 53 °F (2004)
Degree Days  
Heating Degree Days 0 0  
Month to date heating degree days 0 0  
Since 1 June heating degree days 3 15  
Since 1 July heating degree days 0 1  
Cooling Degree Days 6 9  
Month to date cooling degree days 89 129  
Year to date cooling degree days 772 765  
Since 1 June cooling degree days 670 681  
Growing Degree Days 20 (Base 50)    
Moisture  
Dew Point 57 °F    
Average Humidity 64    
Maximum Humidity 90    
Minimum Humidity 37    
Precipitation  
Precipitation 0.00 in 0.10 in 1.78 in (1993)
Month to date precipitation 0.41 1.22  
Year to date precipitation 31.54 26.68  
Sea Level Pressure  
Sea Level Pressure 30.02 in    
Wind  
Wind Speed 2 mph (ESE)    
Max Wind Speed 8 mph    
Max Gust Speed 13 mph    
Visibility 10 miles    
Events      
T = Trace of Precipitation, MM = Missing Value Source: NWS Daily Summary

Daily Weather History Graph

Daily Weather History Graph

Search for Another Location

Airport or City:

Astronomy

Aug. 13, 2017 Rise Set
Actual Time 6:55 AM EDT 8:43 PM EDT
Civil Twilight 6:26 AM EDT 9:12 PM EDT
Nautical Twilight 5:51 AM EDT 9:47 PM EDT
Astronomical Twilight 5:13 AM EDT 10:25 PM EDT
Moon No Moon Rise 12:53 PM EDT (8/13)
Length of Visible Light 14h 46m
Length of Day
13h 48m
Waning Gibbous, 65% of the Moon is Illuminated
Aug 13
Waning Gibbous
Aug 14
Last Quarter
Aug 21
New
Aug 29
First Quarter
Sep 6
Full

Hourly Weather History & Observations

Time (EDT) Temp. Heat Index Dew Point Humidity Pressure Visibility Wind Dir Wind Speed Gust Speed Precip Events Conditions
12:53 AM 63.0 °F - 57.0 °F 81% 30.04 in 10.0 mi North 3.5 mph - N/A   Clear
1:53 AM 63.0 °F - 57.0 °F 81% 30.05 in 10.0 mi North - - N/A   Clear
2:53 AM 62.1 °F - 57.0 °F 84% 30.04 in 10.0 mi Calm Calm - N/A   Clear
3:53 AM 61.0 °F - 57.0 °F 87% 30.04 in 10.0 mi Calm Calm - N/A   Clear
4:53 AM 59.0 °F - 55.9 °F 90% 30.03 in 10.0 mi Calm Calm - N/A   Clear
5:53 AM 60.1 °F - 55.9 °F 86% 30.04 in 10.0 mi Calm Calm - N/A   Clear
6:53 AM 59.0 °F - 55.9 °F 90% 30.04 in 10.0 mi Calm Calm - N/A   Clear
7:53 AM 60.1 °F - 57.0 °F 90% 30.06 in 10.0 mi Calm Calm - N/A   Clear
8:53 AM 64.9 °F - 59.0 °F 81% 30.06 in 10.0 mi East 4.6 mph - N/A   Clear
9:53 AM 68.0 °F - 59.0 °F 73% 30.06 in 10.0 mi East 3.5 mph - N/A   Clear
10:53 AM 73.0 °F - 60.1 °F 64% 30.06 in 10.0 mi East 3.5 mph - N/A   Clear
11:53 AM 75.9 °F - 60.1 °F 58% 30.05 in 10.0 mi East 5.8 mph - N/A   Partly Cloudy
12:53 PM 78.1 °F - 57.0 °F 48% 30.05 in 10.0 mi North - - N/A   Scattered Clouds
1:53 PM 77.0 °F - 55.9 °F 48% 30.04 in 10.0 mi SSE 4.6 mph - N/A   Clear
2:53 PM 81.0 °F 80.8 °F 55.9 °F 42% 30.01 in 10.0 mi Variable 4.6 mph - N/A   Mostly Cloudy
3:53 PM 82.0 °F 81.2 °F 53.1 °F 37% 30.00 in 10.0 mi South 5.8 mph - N/A   Partly Cloudy
4:53 PM 81.0 °F 80.5 °F 54.0 °F 39% 29.99 in 10.0 mi SE 5.8 mph - N/A   Clear
5:53 PM 81.0 °F 80.4 °F 53.1 °F 38% 29.98 in 10.0 mi Calm Calm - N/A   Partly Cloudy
6:53 PM 80.1 °F 80.1 °F 55.0 °F 42% 29.97 in 10.0 mi South 4.6 mph - N/A   Scattered Clouds
7:53 PM 78.1 °F - 55.0 °F 45% 29.96 in 10.0 mi SSE 4.6 mph - N/A   Scattered Clouds
8:53 PM 75.9 °F - 55.9 °F 50% 29.96 in 10.0 mi SSE 3.5 mph - N/A   Scattered Clouds
9:53 PM 73.0 °F - 57.0 °F 57% 29.96 in 10.0 mi North - - N/A   Clear
10:53 PM 72.0 °F - 57.0 °F 59% 29.96 in 10.0 mi Calm Calm - N/A   Clear
11:53 PM 70.0 °F - 61.0 °F 73% 29.96 in 10.0 mi Calm Calm - N/A   Clear